Location: A�t �Alizem
(31.2076°N, 8.7872°W)
Time: 05:56:08
(UTC+00:00)

Cosmos 1470 Rocket - Pass Details

Date: 27 November 2020
Orbit: 604 x 633 km, 82.5° (Epoch: 25 January)

Event Time Altitude Azimuth Distance (km) Brightness Sun altitude
Rises 19:17:00 0° 348° (NNW) 2,863 7.0 -22.0°
Reaches altitude 10° 19:19:15 10° 344° (NNW) 1,954 6.2 -22.4°
Maximum altitude 19:23:28 55° 267° (W) 730 4.2 -23.3°
Drops below altitude 10° 19:27:39 10° 189° (S) 1,944 6.3 -24.2°
Sets 19:29:53 0° 185° (S) 2,845 7.2 -24.7°
